Lamoni, IA

2:01 AM CST on November 19, 2017 (GMT -0600)
Lamoni Municipal

Weather History for KLWD - March, 2013

Change the Weather History Date:

Sunday, March 10, 2013

  Actual Average Record
Temperature  
Mean Temperature 38 °F -  
Max Temperature 47 °F - 74 °F (1967)
Min Temperature 29 °F - 12 °F (1965)
Degree Days  
Heating Degree Days 27    
Month to date heating degree days 339  
Since 1 July heating degree days 4737  
Cooling Degree Days 0 0  
Month to date cooling degree days 0 0  
Year to date cooling degree days 0 0  
Moisture  
Dew Point 34 °F    
Average Humidity 93    
Maximum Humidity 100    
Minimum Humidity 85    
Precipitation  
Precipitation 0.17 in - 1.12 in (1990)
Month to date precipitation 1.12  
Sea Level Pressure  
Sea Level Pressure 29.69 in    
Wind  
Wind Speed 13 mph (North)    
Max Wind Speed 23 mph    
Max Gust Speed 31 mph    
Visibility 5 miles    
Events Fog , Rain    
T = Trace of Precipitation, MM = Missing Value Source: NWS Daily Summary

Daily Weather History Graph

Daily Weather History Graph

Search for Another Location

Airport or City:

Trip Planner

Search our weather history database for the weather conditions in past years. The results will help you decide how hot, cold, wet, or windy it might be!

Date:

Astronomy

Mar. 10, 2013 Rise Set
Actual Time 7:34 AM CDT 7:17 PM CDT
Civil Twilight 7:07 AM CDT 7:44 PM CDT
Nautical Twilight 6:36 AM CDT 8:16 PM CDT
Astronomical Twilight 6:04 AM CDT 8:48 PM CDT
Moon 6:35 AM CDT (3/10) 6:25 PM CDT (3/10)
Length of Visible Light 12h 36m
Length of Day
11h 42m
Waning Crescent, 2% of the Moon is Illuminated
Mar 10
Waning Crescent
Mar 11
New
Mar 19
First Quarter
Mar 27
Full
Apr 2
Last Quarter

Hourly Weather History & Observations

Time (CDT) Temp. Windchill Dew Point Humidity Pressure Visibility Wind Dir Wind Speed Gust Speed Precip Events Conditions
12:53 AM 45.0 °F 41.8 °F 44.1 °F 97% 29.68 in 0.2 mi WSW 5.8 mph - N/A Fog Fog
1:53 AM 46.0 °F - 45.0 °F 96% 29.62 in 0.2 mi Calm Calm - N/A Fog Fog
4:53 AM 46.0 °F - 45.0 °F 96% 29.62 in 0.2 mi Calm Calm - 0.00 in Fog Fog
5:53 AM 41.0 °F 34.7 °F 39.9 °F 96% 29.65 in 0.2 mi North 10.4 mph - N/A Fog Fog
6:40 AM 39.2 °F 31.2 °F 37.4 °F 93% 29.64 in 1.2 mi North 13.8 mph - N/A   Overcast
7:08 AM 37.4 °F 28.5 °F 37.4 °F 100% 29.65 in 2.0 mi North 15.0 mph 24.2 mph N/A   Overcast
7:23 AM 37.4 °F 28.2 °F 37.4 °F 100% 29.66 in 1.5 mi North 16.1 mph - 0.00 in Rain Light Rain
7:38 AM 37.4 °F 27.8 °F 35.6 °F 93% 29.65 in 2.0 mi North 17.3 mph 25.3 mph 0.00 in   Overcast
7:53 AM 36.0 °F 26.0 °F 35.1 °F 97% 29.67 in 1.5 mi North 17.3 mph 25.3 mph 0.00 in   Overcast
8:53 AM 35.1 °F 26.4 °F 34.0 °F 96% 29.71 in 1.2 mi NNE 12.7 mph - 0.01 in   Overcast
9:24 AM 35.6 °F 25.5 °F 33.8 °F 93% 29.69 in 2.0 mi NNE 17.3 mph - 0.00 in Rain Light Rain
9:48 AM 35.6 °F 26.6 °F 33.8 °F 93% 29.67 in 3.0 mi North 13.8 mph 23.0 mph 0.00 in   Overcast
9:53 AM 35.1 °F 24.8 °F 34.0 °F 96% 29.70 in 3.0 mi North 17.3 mph 23.0 mph 0.00 in   Overcast
10:53 AM 35.1 °F 25.9 °F 34.0 °F 96% 29.72 in 4.0 mi NNE 13.8 mph - 0.00 in   Overcast
11:53 AM 35.1 °F 24.8 °F 34.0 °F 96% 29.70 in 7.0 mi NNE 17.3 mph - 0.00 in Rain Light Rain
12:53 PM 35.1 °F 26.9 °F 34.0 °F 96% 29.69 in 5.0 mi North 11.5 mph - 0.01 in Rain Light Rain
1:26 PM 35.6 °F 25.9 °F 33.8 °F 93% 29.64 in 2.5 mi North 16.1 mph - 0.04 in Rain Rain
1:41 PM 35.6 °F 26.2 °F 33.8 °F 93% 29.64 in 4.0 mi NNE 15.0 mph - 0.06 in Rain Light Rain
1:53 PM 36.0 °F 26.7 °F 34.0 °F 93% 29.67 in 5.0 mi NNE 15.0 mph - 0.06 in Rain Light Rain
2:53 PM 36.0 °F 28.5 °F 34.0 °F 93% 29.67 in 8.0 mi North 10.4 mph - 0.05 in Rain Light Rain
3:53 PM 35.1 °F 26.4 °F 33.1 °F 92% 29.67 in 9.0 mi NNW 12.7 mph - 0.03 in   Overcast
4:53 PM 34.0 °F 25.5 °F 32.0 °F 92% 29.69 in 10.0 mi North 11.5 mph - 0.01 in   Overcast
5:53 PM 34.0 °F 24.2 °F 30.9 °F 89% 29.71 in 10.0 mi NNW 15.0 mph - N/A   Overcast
6:53 PM 33.1 °F 23.0 °F 30.9 °F 92% 29.72 in 10.0 mi NNW 15.0 mph 23.0 mph N/A   Overcast
7:53 PM 32.0 °F 20.1 °F 28.9 °F 88% 29.74 in 10.0 mi NNW 19.6 mph 25.3 mph N/A   Overcast
8:04 PM 32.0 °F 20.8 °F 28.4 °F 87% 29.71 in 10.0 mi NW 17.3 mph 23.0 mph N/A   Overcast
8:32 PM 30.2 °F 18.5 °F 28.4 °F 93% 29.72 in 10.0 mi NNW 17.3 mph 25.3 mph N/A   Overcast
8:53 PM 30.9 °F 19.4 °F 28.0 °F 89% 29.76 in 10.0 mi NW 17.3 mph 24.2 mph N/A   Overcast
9:53 PM 30.0 °F 18.7 °F 27.0 °F 88% 29.77 in 10.0 mi NW 16.1 mph - N/A   Overcast
10:53 PM 30.0 °F 18.3 °F 26.1 °F 85% 29.78 in 10.0 mi NNW 17.3 mph 24.2 mph N/A   Overcast
11:53 PM 30.0 °F 17.9 °F 26.1 °F 85% 29.79 in 10.0 mi NNW 18.4 mph 27.6 mph N/A   Overcast
12:53 AM 28.9 °F 16.1 °F 25.0 °F 85% 29.80 in 10.0 mi NW 19.6 mph 28.8 mph N/A   Overcast